• In Austria
  • List of Countries
  • For 7 days
  • Water Temperature
  • Satellite Maps
  • Weather Map
  • News
  • Weather Widgets
  • user-avatar
    Login

    Hourly Weather Tirana

    Today, 24 February, Saturday

    Time Temperature Precipitation Wind Pressure Humidity
    00:00 +8°C° 0 mm 7 mps 745 mmHg 75%
    01:00 +8°C° 0 mm 7 mps 745 mmHg 76%
    02:00 +8°C° 0.1 mm 6 mps 745 mmHg 75%
    03:00 +8°C° 0.1 mm 6 mps 745 mmHg 75%
    04:00 +8°C° 0.1 mm 5 mps 745 mmHg 75%
    05:00 +8°C° 0.5 mm 5 mps 745 mmHg 77%
    06:00 +7°C° 0.5 mm 4 mps 745 mmHg 79%
    07:00 +8°C° 0.5 mm 3 mps 745 mmHg 81%
    08:00 +9°C° 0.5 mm 3 mps 745 mmHg 79%
    09:00 +10°C° 0.5 mm 3 mps 746 mmHg 77%
    10:00 +10°C° 0.5 mm 4 mps 746 mmHg 75%
    11:00 +11°C° 0.1 mm 3 mps 746 mmHg 72%
    12:00 +12°C° 0.1 mm 3 mps 746 mmHg 69%
    13:00 +14°C° 0.1 mm 2 mps 746 mmHg 65%
    14:00 +13°C° 0.1 mm 3 mps 746 mmHg 66%
    15:00 +12°C° 0.1 mm 3 mps 746 mmHg 68%
    16:00 +12°C° 0.1 mm 3 mps 746 mmHg 69%
    17:00 +11°C° 0.1 mm 3 mps 746 mmHg 72%
    18:00 +10°C° 0.1 mm 3 mps 746 mmHg 75%
    19:00 +9°C° 0.1 mm 3 mps 746 mmHg 78%
    20:00 +9°C° 0 mm 3 mps 747 mmHg 79%
    21:00 +8°C° 0 mm 3 mps 747 mmHg 79%
    22:00 +8°C° 0 mm 3 mps 747 mmHg 79%
    23:00 +8°C° 0 mm 3 mps 748 mmHg 79%

    Tomorrow, 25 February, Sunday

    Time Temperature Precipitation Wind Pressure Humidity
    00:00 +8°C° 0 mm 3 mps 748 mmHg 79%
    01:00 +7°C° 0 mm 3 mps 748 mmHg 79%
    02:00 +7°C° 0.2 mm 3 mps 748 mmHg 79%
    03:00 +6°C° 0.2 mm 4 mps 748 mmHg 79%
    04:00 +6°C° 0.2 mm 4 mps 748 mmHg 78%
    05:00 +6°C° 0.6 mm 4 mps 748 mmHg 78%
    06:00 +5°C° 0.6 mm 4 mps 748 mmHg 78%
    07:00 +5°C° 0.6 mm 4 mps 748 mmHg 78%
    08:00 +6°C° 0.7 mm 5 mps 748 mmHg 76%
    09:00 +7°C° 0.7 mm 5 mps 748 mmHg 74%
    10:00 +7°C° 0.7 mm 5 mps 748 mmHg 72%
    11:00 +7°C° 0.6 mm 6 mps 748 mmHg 73%
    12:00 +8°C° 0.6 mm 6 mps 748 mmHg 74%
    13:00 +8°C° 0.6 mm 6 mps 747 mmHg 75%
    14:00 +7°C° 0.6 mm 6 mps 747 mmHg 77%
    15:00 +7°C° 0.6 mm 6 mps 747 mmHg 80%
    16:00 +6°C° 0.6 mm 5 mps 747 mmHg 82%
    17:00 +6°C° 1.4 mm 5 mps 746 mmHg 83%
    18:00 +5°C° 1.4 mm 5 mps 746 mmHg 84%
    19:00 +5°C° 1.4 mm 4 mps 746 mmHg 85%
    20:00 +3°C° 1.4 mm 5 mps 746 mmHg 85%
    21:00 +3°C° 1.4 mm 5 mps 746 mmHg 85%
    22:00 +2°C° 1.4 mm 5 mps 746 mmHg 85%
    23:00 +2°C° 0.5 mm 6 mps 745 mmHg 84%

    Day after tomorrow, 26 February, Monday

    Time Temperature Precipitation Wind Pressure Humidity
    00:00 +2°C° 0.5 mm 6 mps 745 mmHg 83%
    01:00 +2°C° 0.5 mm 6 mps 745 mmHg 82%
    02:00 +2°C° 0.6 mm 6 mps 744 mmHg 83%
    03:00 +1°C° 0.6 mm 6 mps 744 mmHg 84%
    04:00 +1°C° 0.6 mm 6 mps 743 mmHg 85%
    05:00 +1°C° 0.1 mm 6 mps 743 mmHg 84%
    06:00 +1°C° 0.1 mm 6 mps 743 mmHg 83%
    07:00 +1°C° 0.1 mm 6 mps 743 mmHg 82%
    08:00 +2°C° 0.1 mm 6 mps 743 mmHg 81%
    09:00 +3°C° 0.1 mm 5 mps 743 mmHg 80%
    10:00 +3°C° 0.1 mm 5 mps 743 mmHg 79%
    11:00 +5°C° 0 mm 5 mps 743 mmHg 78%
    12:00 +6°C° 0 mm 4 mps 743 mmHg 78%
    13:00 +6°C° 0 mm 4 mps 743 mmHg 77%
    14:00 +7°C° 0 mm 3 mps 743 mmHg 77%
    15:00 +8°C° 0 mm 3 mps 743 mmHg 77%
    16:00 +8°C° 0 mm 3 mps 743 mmHg 78%
    17:00 +5°C° 0 mm 3 mps 743 mmHg 79%
    18:00 +4°C° 0 mm 4 mps 743 mmHg 80%
    19:00 +2°C° 0 mm 5 mps 743 mmHg 81%
    20:00 +2°C° 0.5 mm 5 mps 743 mmHg 81%
    21:00 +2°C° 0.5 mm 6 mps 744 mmHg 82%
    22:00 +2°C° 0.5 mm 7 mps 744 mmHg 83%
    23:00 +2°C° 0.6 mm 7 mps 744 mmHg 86%

    27 February, Tuesday

    Time Temperature Precipitation Wind Pressure Humidity
    00:00 +3°C° 0.6 mm 7 mps 744 mmHg 89%
    01:00 +3°C° 0.6 mm 7 mps 744 mmHg 92%
    02:00 +3°C° 0.3 mm 6 mps 744 mmHg 92%
    03:00 +3°C° 0.3 mm 6 mps 744 mmHg 92%
    04:00 +3°C° 0.3 mm 5 mps 745 mmHg 92%
    05:00 +4°C° 0.2 mm 4 mps 745 mmHg 92%
    06:00 +4°C° 0.2 mm 3 mps 745 mmHg 91%
    07:00 +3°C° 0.2 mm 3 mps 745 mmHg 90%
    08:00 +4°C° 0.3 mm 3 mps 746 mmHg 87%
    09:00 +5°C° 0.3 mm 4 mps 746 mmHg 83%
    10:00 +6°C° 0.3 mm 5 mps 746 mmHg 80%
    11:00 +6°C° 0.7 mm 4 mps 746 mmHg 81%
    12:00 +6°C° 0.7 mm 4 mps 745 mmHg 82%
    13:00 +6°C° 0.7 mm 4 mps 745 mmHg 82%
    14:00 +6°C° 0.9 mm 4 mps 745 mmHg 84%
    15:00 +8°C° 0.9 mm 3 mps 745 mmHg 85%
    16:00 +8°C° 0.9 mm 3 mps 745 mmHg 86%
    17:00 +7°C° 0.4 mm 3 mps 745 mmHg 88%
    18:00 +7°C° 0.4 mm 3 mps 746 mmHg 90%
    19:00 +7°C° 0.4 mm 3 mps 746 mmHg 92%
    20:00 +7°C° 0.5 mm 3 mps 746 mmHg 93%
    21:00 +7°C° 0.5 mm 3 mps 746 mmHg 93%
    22:00 +7°C° 0.5 mm 3 mps 746 mmHg 94%
    23:00 +6°C° 0.4 mm 4 mps 747 mmHg 94%

    28 February, Wednesday

    Time Temperature Precipitation Wind Pressure Humidity
    00:00 +6°C° 0.4 mm 4 mps 747 mmHg 94%
    01:00 +6°C° 0.4 mm 5 mps 747 mmHg 94%
    02:00 +5°C° 0 mm 5 mps 747 mmHg 93%
    03:00 +5°C° 0 mm 5 mps 747 mmHg 92%
    04:00 +3°C° 0 mm 5 mps 747 mmHg 90%
    05:00 +3°C° 0 mm 5 mps 748 mmHg 89%
    06:00 +3°C° 0 mm 4 mps 749 mmHg 87%
    07:00 +3°C° 0 mm 4 mps 749 mmHg 85%
    08:00 +4°C° 0 mm 4 mps 750 mmHg 81%
    09:00 +5°C° 0 mm 4 mps 750 mmHg 77%
    10:00 +6°C° 0 mm 4 mps 751 mmHg 73%
    11:00 +7°C° 0 mm 4 mps 751 mmHg 71%
    12:00 +7°C° 0 mm 5 mps 751 mmHg 69%
    13:00 +8°C° 0 mm 5 mps 751 mmHg 67%
    14:00 +8°C° 0 mm 5 mps 752 mmHg 67%
    15:00 +7°C° 0 mm 4 mps 752 mmHg 67%
    16:00 +7°C° 0 mm 4 mps 752 mmHg 67%
    17:00 +6°C° 0 mm 4 mps 753 mmHg 68%
    18:00 +5°C° 0 mm 3 mps 753 mmHg 69%
    19:00 +3°C° 0 mm 3 mps 754 mmHg 69%
    20:00 +3°C° 0 mm 3 mps 755 mmHg 68%
    21:00 +4°C° 0 mm 2 mps 755 mmHg 67%
    22:00 +4°C° 0 mm 2 mps 755 mmHg 66%
    23:00 +4°C° 0 mm 2 mps 755 mmHg 65%

    1 March, Thursday

    Time Temperature Precipitation Wind Pressure Humidity
    00:00 +4°C° 0 mm 2 mps 755 mmHg 64%
    01:00 +4°C° 0 mm 3 mps 755 mmHg 63%
    02:00 +4°C° 0 mm 3 mps 755 mmHg 63%
    03:00 +4°C° 0 mm 3 mps 755 mmHg 63%
    04:00 +4°C° 0 mm 3 mps 755 mmHg 63%
    05:00 +5°C° 0 mm 3 mps 755 mmHg 65%
    06:00 +5°C° 0 mm 3 mps 755 mmHg 67%
    07:00 +5°C° 0 mm 4 mps 755 mmHg 68%
    08:00 +7°C° 0 mm 4 mps 755 mmHg 67%
    09:00 +10°C° 0 mm 4 mps 755 mmHg 66%
    10:00 +12°C° 0 mm 4 mps 755 mmHg 65%
    11:00 +13°C° 0 mm 5 mps 755 mmHg 64%
    12:00 +14°C° 0 mm 5 mps 754 mmHg 63%
    13:00 +15°C° 0 mm 5 mps 754 mmHg 62%
    14:00 +15°C° 0 mm 6 mps 754 mmHg 64%
    15:00 +14°C° 0 mm 6 mps 754 mmHg 66%
    16:00 +14°C° 0 mm 6 mps 753 mmHg 69%
    17:00 +13°C° 0 mm 6 mps 753 mmHg 73%
    18:00 +10°C° 0 mm 6 mps 753 mmHg 78%
    19:00 +9°C° 0 mm 6 mps 754 mmHg 82%
    20:00 +8°C° 0 mm 6 mps 754 mmHg 82%
    21:00 +8°C° 0 mm 6 mps 754 mmHg 82%
    22:00 +8°C° 0 mm 6 mps 753 mmHg 82%
    23:00 +8°C° 0 mm 6 mps 753 mmHg 79%
    Show more